This is the latest recevied weather packets stored in our database for station/object LZ1PDB-12. If no packets are shown the sender has not sent any weather packets the latest 10 day(s).
| Time | Temp. | Humidity | Pressure | Rain* | Wind** | Luminosity | Snow |
|---|---|---|---|---|---|---|---|
| 1777883540 | 11.67° C | 43% | 1023.5 hPa | - | - | - | - |
| 1777882639 | 11.11° C | 44% | 1023.7 hPa | - | - | - | - |
| 1777881739 | 10.56° C | 44% | 1023.6 hPa | - | - | - | - |
| 1777879938 | 9.44° C | 48% | 1023.6 hPa | - | - | - | - |
| 1777879038 | 8.89° C | 47% | 1023.6 hPa | - | - | - | - |
| 1777878138 | 8.89° C | 48% | 1023.5 hPa | - | - | - | - |
| 1777877238 | 8.33° C | 49% | 1023.5 hPa | - | - | - | - |
| 1777876338 | 8.33° C | 48% | 1023.5 hPa | - | - | - | - |
| 1777875438 | 8.89° C | 47% | 1023.6 hPa | - | - | - | - |
| 1777874537 | 8.89° C | 48% | 1023.6 hPa | - | - | - | - |
| 1777873637 | 8.89° C | 46% | 1023.5 hPa | - | - | - | - |
| 1777872737 | 8.89° C | 47% | 1023.7 hPa | - | - | - | - |
| 1777871837 | 8.89° C | 48% | 1023.8 hPa | - | - | - | - |
| 1777870937 | 8.89° C | 47% | 1023.8 hPa | - | - | - | - |
| 1777870037 | 8.33° C | 47% | 1023.9 hPa | - | - | - | - |
| 1777869136 | 8.33° C | 47% | 1023.9 hPa | - | - | - | - |
| 1777868236 | 8.33° C | 47% | 1023.9 hPa | - | - | - | - |
| 1777867336 | 8.33° C | 47% | 1023.8 hPa | - | - | - | - |
| 1777864636 | 8.89° C | 48% | 1023.8 hPa | - | - | - | - |
| 1777843030 | 9.44° C | 48% | 1024.3 hPa | - | - | - | - |
| 1777842130 | 10° C | 48% | 1024.5 hPa | - | - | - | - |
| 1777840325 | 10° C | 50% | 1024.6 hPa | - | - | - | - |
| 1777839425 | 10° C | 50% | 1024.7 hPa | - | - | - | - |
| 1777837625 | 10° C | 51% | 1024.5 hPa | - | - | - | - |
| 1777836725 | 10° C | 51% | 1024.3 hPa | - | - | - | - |
* Rain since midnight (hover to see other rain measurements)
** Current wind speed in m/s (hover to see current wind gust speed)